Home > Weather > Lennestadt > Past weeks

Flag for Germany Weather for the Past 2 Weeks in Lennestadt, North Rhine-Westphalia, Germany

Now
46 °F

Passing clouds.


Feels Like: 41 °F
Forecast: 39 / 46 °F
Wind: 10 mph from South

Location: Hessen

Current Time: Apr 29, 2016 at 8:07:03 PM

Latest Report: Apr 29, 2016 at 7:20 PM


Visibility: N/A

Pressure: 29.98 "Hg

Humidity: 53%

Dew Point: 30 °F

Location of LennestadtLocation

Historic Weather in Lennestadt — Graph

°F

Lennestadt Temperature Yesterday

Maximum temperature yesterday: 43 °F (at 3:50 PM)
Minimum temperature yesterday: 32 °F (at 7:20 AM)
Average temperature yesterday: 38 °F

High & Low Weather Summary for the Past Weeks

 TemperatureHumidityPressure
High63 °F (Apr 21, 5:20 PM)100% (Apr 15, 7:50 AM)30.42 "Hg (Apr 15, 7:50 AM)
Low30 °F (Apr 24, 7:50 AM)30% (Apr 21, 5:50 PM)29.47 "Hg (Apr 26, 7:50 AM)
Average43 °F70%29.90 "Hg
* Reported Apr 14 6:20 PM — Apr 29 6:50 PM, Lennestadt, Weather by CustomWeather, © 2016

Note: Actual official high and low records may vary slightly from our data, if they occured in-between our weather recording intervals... More about our weather records

Advertising

Lennestadt Weather History for the Previous 24 Hours

Scroll right to see more
 ConditionsComfort  
Time TempWeatherWind HumidityBarometerVisibility
6:50 PM
Fri, Apr 29
46 °FPassing clouds.13 mph50%29.98 "HgN/A
6:20 PM46 °FPassing clouds.13 mph50%29.98 "HgN/A
5:50 PM46 °FPassing clouds.14 mph50%29.98 "HgN/A
5:20 PM46 °FPassing clouds.13 mph50%29.98 "HgN/A
4:50 PM46 °FPassing clouds.13 mph50%29.98 "HgN/A
4:20 PM46 °FPartly sunny.13 mph50%29.98 "HgN/A
3:50 PM46 °FPartly sunny.10 mph50%29.98 "HgN/A
3:20 PM46 °FPartly sunny.12 mph46%29.98 "HgN/A
2:50 PM46 °FPartly sunny.13 mph50%29.98 "HgN/A
2:20 PM46 °FPartly sunny.14 mph46%29.98 "HgN/A
1:50 PM46 °FScattered clouds.15 mph46%29.98 "HgN/A
1:20 PM46 °FScattered clouds.13 mph50%29.98 "HgN/A
12:50 PM45 °FScattered clouds.12 mph53%29.98 "HgN/A
12:20 PM46 °FScattered clouds.14 mph50%29.98 "HgN/A
11:50 AM45 °FScattered clouds.13 mph57%29.98 "HgN/A
11:20 AM45 °FPassing clouds.13 mph57%29.98 "HgN/A
10:50 AM43 °FPassing clouds.14 mph66%29.98 "HgN/A
9:50 AM39 °FPassing clouds.10 mph75%29.98 "HgN/A
9:20 AM37 °FPassing clouds.9 mph81%29.98 "HgN/A
8:50 AM37 °FPassing clouds.9 mph75%29.98 "HgN/A
8:20 AM36 °FPassing clouds.7 mph81%29.98 "HgN/A
7:50 AM36 °FSunny.8 mph81%29.95 "Hg10 mi
8:50 PM
Thu, Apr 28
37 °FScattered showers. Scattered clouds.3 mph65%29.95 "HgN/A
8:20 PM41 °FPassing clouds.6 mph57%29.95 "HgN/A
Weather by CustomWeather, © 2016

See weather overviewHow to use our weather pages